Wrangell, AK

9:22 PM AKDT on May 25, 2017 (GMT -0800)
Wrangell

Weather History for PAWG - October, 2010

Change the Weather History Date:

Saturday, October 16, 2010

  Actual Average Record
Temperature  
Mean Temperature 45 °F -  
Max Temperature 48 °F 48 °F 64 °F (2015)
Min Temperature 42 °F 37 °F 25 °F (1992)
Degree Days  
Heating Degree Days 20    
Moisture  
Dew Point 40 °F    
Average Humidity 82    
Maximum Humidity 93    
Minimum Humidity 76    
Precipitation  
Precipitation 0.00 in - - ()
Sea Level Pressure  
Sea Level Pressure 29.90 in    
Wind  
Wind Speed 19 mph (ESE)    
Max Wind Speed 25 mph    
Max Gust Speed 34 mph    
Visibility 9 miles    
Events      
Averages and records for this station are not official NWS values.
T = Trace of Precipitation, MM = Missing Value Source: NWS Daily Summary

Daily Weather History Graph

Daily Weather History Graph

Search for Another Location

Airport or City:

Trip Planner

Search our weather history database for the weather conditions in past years. The results will help you decide how hot, cold, wet, or windy it might be!

Date:

Astronomy

Oct. 16, 2010 Rise Set
Actual Time 7:24 AM AKDT 5:44 PM AKDT
Civil Twilight 6:45 AM AKDT 6:23 PM AKDT
Nautical Twilight 6:02 AM AKDT 7:06 PM AKDT
Astronomical Twilight 5:18 AM AKDT 7:50 PM AKDT
Moon 3:40 PM AKDT (10/16) 12:14 AM AKDT (10/16)
Length of Visible Light 11h 37m
Length of Day
10h 20m
Waxing Gibbous, 68% of the Moon is Illuminated
Oct 16
Waxing Gibbous
Oct 22
Full
Oct 30
Last Quarter
Nov 5
New
Nov 13
First Quarter

Hourly Weather History & Observations

Time (AKDT) Temp. Windchill Dew Point Humidity Pressure Visibility Wind Dir Wind Speed Gust Speed Precip Events Conditions
12:16 AM 44.6 °F 36.6 °F 37.4 °F 76% 30.00 in 9.0 mi ESE 19.6 mph 29.9 mph N/A   Overcast
12:36 AM 44.6 °F 36.1 °F 37.4 °F 76% 29.99 in 9.0 mi ESE 21.9 mph 28.8 mph N/A   Overcast
12:56 AM 44.6 °F 36.6 °F 37.4 °F 76% 30.00 in 9.0 mi ESE 19.6 mph 27.6 mph N/A   Overcast
1:16 AM 44.6 °F 36.4 °F 37.4 °F 76% 29.99 in 10.0 mi ESE 20.7 mph 28.8 mph N/A   Overcast
1:36 AM 44.6 °F 36.4 °F 37.4 °F 76% 29.98 in 9.0 mi ESE 20.7 mph 29.9 mph N/A   Overcast
1:56 AM 44.6 °F 36.1 °F 37.4 °F 76% 29.97 in 7.0 mi SE 21.9 mph 28.8 mph N/A   Overcast
2:16 AM 44.6 °F 36.1 °F 37.4 °F 76% 29.97 in 8.0 mi SE 21.9 mph 28.8 mph N/A   Overcast
2:36 AM 44.6 °F 36.6 °F 37.4 °F 76% 29.97 in 9.0 mi ESE 19.6 mph 27.6 mph N/A   Overcast
2:56 AM 42.8 °F 34.0 °F 37.4 °F 81% 29.96 in 8.0 mi ESE 20.7 mph 33.4 mph N/A   Overcast
3:16 AM 42.8 °F 34.0 °F 37.4 °F 81% 29.95 in 6.0 mi ESE 20.7 mph 28.8 mph N/A   Overcast
3:36 AM 42.8 °F 33.5 °F 37.4 °F 81% 29.93 in 7.0 mi ESE 23.0 mph 31.1 mph N/A   Overcast
3:56 AM 42.8 °F 33.3 °F 37.4 °F 81% 29.92 in 8.0 mi ESE 24.2 mph 28.8 mph N/A   Overcast
4:16 AM 44.6 °F 35.9 °F 37.4 °F 76% 29.91 in 8.0 mi SE 23.0 mph 31.1 mph N/A   Overcast
4:36 AM 44.6 °F 35.9 °F 37.4 °F 76% 29.90 in 10.0 mi SE 23.0 mph 28.8 mph N/A   Overcast
4:56 AM 44.6 °F 36.1 °F 39.2 °F 81% 29.89 in 9.0 mi ESE 21.9 mph 28.8 mph N/A   Overcast
5:16 AM 44.6 °F 35.5 °F 37.4 °F 76% 29.88 in 10.0 mi SE 25.3 mph 31.1 mph N/A   Overcast
5:36 AM 44.6 °F 36.4 °F 37.4 °F 76% 29.88 in 10.0 mi ESE 20.7 mph 29.9 mph N/A   Overcast
5:56 AM 44.6 °F 35.9 °F 39.2 °F 81% 29.87 in 10.0 mi ESE 23.0 mph 29.9 mph N/A   Overcast
6:16 AM 44.6 °F 35.5 °F 39.2 °F 81% 29.86 in 10.0 mi ESE 25.3 mph 34.5 mph N/A   Overcast
6:36 AM 44.6 °F 35.9 °F 39.2 °F 81% 29.86 in 10.0 mi ESE 23.0 mph 32.2 mph N/A   Overcast
6:56 AM 44.6 °F 35.9 °F 39.2 °F 81% 29.85 in 10.0 mi ESE 23.0 mph 29.9 mph N/A   Overcast
7:16 AM 44.6 °F 35.9 °F 39.2 °F 81% 29.86 in 10.0 mi ESE 23.0 mph 29.9 mph N/A   Overcast
7:36 AM 44.6 °F 35.9 °F 39.2 °F 81% 29.86 in 10.0 mi ESE 23.0 mph 34.5 mph N/A   Overcast
7:56 AM 44.6 °F 36.4 °F 39.2 °F 81% 29.86 in 7.0 mi ESE 20.7 mph 31.1 mph N/A   Overcast
8:16 AM 44.6 °F 35.9 °F 39.2 °F 81% 29.86 in 7.0 mi ESE 23.0 mph 32.2 mph N/A   Overcast
8:36 AM 44.6 °F 35.7 °F 39.2 °F 81% 29.86 in 7.0 mi ESE 24.2 mph 29.9 mph N/A   Overcast
8:56 AM 44.6 °F 36.1 °F 39.2 °F 81% 29.86 in 7.0 mi ESE 21.9 mph 29.9 mph N/A   Overcast
9:16 AM 44.6 °F 36.6 °F 39.2 °F 81% 29.87 in 7.0 mi ESE 19.6 mph 31.1 mph N/A   Overcast
9:36 AM 44.6 °F 35.9 °F 39.2 °F 81% 29.86 in 7.0 mi ESE 23.0 mph 29.9 mph N/A   Overcast
9:56 AM 44.6 °F 36.4 °F 39.2 °F 81% 29.87 in 10.0 mi ESE 20.7 mph 26.5 mph N/A   Overcast
10:16 AM 44.6 °F 36.9 °F 39.2 °F 81% 29.87 in 10.0 mi ESE 18.4 mph 28.8 mph N/A   Overcast
10:36 AM 44.6 °F 36.1 °F 39.2 °F 81% 29.87 in 10.0 mi ESE 21.9 mph 28.8 mph N/A   Overcast
10:56 AM 44.6 °F 36.4 °F 39.2 °F 81% 29.87 in 10.0 mi ESE 20.7 mph 27.6 mph N/A   Overcast
11:16 AM 44.6 °F 36.4 °F 39.2 °F 81% 29.87 in 10.0 mi ESE 20.7 mph - N/A   Overcast
11:36 AM 44.6 °F 35.9 °F 39.2 °F 81% 29.87 in 10.0 mi SE 23.0 mph 26.5 mph N/A   Overcast
11:56 AM 44.6 °F 36.9 °F 39.2 °F 81% 29.87 in 10.0 mi SE 18.4 mph 27.6 mph N/A   Overcast
12:16 PM 44.6 °F 36.9 °F 39.2 °F 81% 29.88 in 10.0 mi SE 18.4 mph 25.3 mph N/A   Overcast
12:36 PM 46.4 °F 39.2 °F 41.0 °F 81% 29.87 in 10.0 mi SE 18.4 mph 24.2 mph N/A   Overcast
12:56 PM 46.4 °F 40.1 °F 41.0 °F 81% 29.88 in 10.0 mi SE 15.0 mph 24.2 mph N/A   Overcast
1:16 PM 46.4 °F 40.4 °F 42.8 °F 87% 29.88 in 10.0 mi ESE 13.8 mph 20.7 mph N/A   Overcast
1:36 PM 46.4 °F - 42.8 °F 87% 29.89 in 10.0 mi Calm Calm - N/A   Overcast
1:56 PM 46.4 °F 41.1 °F 42.8 °F 87% 29.89 in 10.0 mi ESE 11.5 mph - N/A   Overcast
2:16 PM 46.4 °F 39.8 °F 42.8 °F 87% 29.88 in 10.0 mi ESE 16.1 mph 20.7 mph N/A   Overcast
2:36 PM 46.4 °F 42.4 °F 42.8 °F 87% 29.89 in 7.0 mi SSE 8.1 mph 18.4 mph N/A   Overcast
2:56 PM 46.4 °F 42.9 °F 42.8 °F 87% 29.89 in 7.0 mi SE 6.9 mph - N/A   Overcast
3:16 PM 46.4 °F 45.2 °F 42.8 °F 87% 29.89 in 7.0 mi SSE 3.5 mph - N/A   Overcast
3:36 PM 48.2 °F - 42.8 °F 82% 29.89 in 7.0 mi SE 3.5 mph - N/A   Overcast
3:56 PM 48.2 °F - 42.8 °F 82% 29.90 in 7.0 mi WSW 3.5 mph - N/A   Overcast
4:16 PM 46.4 °F - 44.6 °F 93% 29.90 in 7.0 mi Calm Calm - N/A   Overcast
4:36 PM 46.4 °F 40.4 °F 42.8 °F 87% 29.89 in 7.0 mi East 13.8 mph 18.4 mph N/A   Overcast
4:56 PM 46.4 °F 43.5 °F 42.8 °F 87% 29.90 in 7.0 mi East 5.8 mph - N/A   Overcast
5:16 PM 46.4 °F 42.4 °F 44.6 °F 93% 29.90 in 7.0 mi East 8.1 mph - N/A   Overcast
5:36 PM 46.4 °F 45.2 °F 42.8 °F 87% 29.90 in 7.0 mi East 3.5 mph - N/A   Overcast
5:56 PM 46.4 °F 45.2 °F 44.6 °F 93% 29.91 in 7.0 mi ESE 3.5 mph - N/A   Overcast
6:16 PM 46.4 °F 42.9 °F 44.6 °F 93% 29.91 in 7.0 mi ESE 6.9 mph - N/A   Overcast
6:36 PM 46.4 °F 40.1 °F 42.8 °F 87% 29.90 in 7.0 mi East 15.0 mph - N/A   Overcast
6:56 PM 46.4 °F 40.7 °F 42.8 °F 87% 29.91 in 9.0 mi East 12.7 mph 17.3 mph N/A   Overcast
7:16 PM 46.4 °F 40.7 °F 42.8 °F 87% 29.91 in 9.0 mi East 12.7 mph - N/A   Overcast
7:36 PM 46.4 °F 40.4 °F 42.8 °F 87% 29.91 in 9.0 mi East 13.8 mph 18.4 mph N/A   Overcast
7:56 PM 46.4 °F 40.1 °F 44.6 °F 93% 29.90 in 10.0 mi ESE 15.0 mph 18.4 mph N/A   Overcast
8:16 PM 46.4 °F 40.4 °F 42.8 °F 87% 29.90 in 10.0 mi East 13.8 mph - N/A   Overcast
8:36 PM 46.4 °F 41.5 °F 44.6 °F 93% 29.90 in 10.0 mi East 10.4 mph - N/A   Overcast
8:56 PM 46.4 °F 41.1 °F 44.6 °F 93% 29.90 in 10.0 mi East 11.5 mph - N/A   Overcast
9:16 PM 46.4 °F 40.7 °F 44.6 °F 93% 29.89 in 10.0 mi East 12.7 mph 16.1 mph N/A   Overcast
9:36 PM 46.4 °F 39.8 °F 42.8 °F 87% 29.89 in 10.0 mi ESE 16.1 mph 21.9 mph N/A   Overcast
9:56 PM 46.4 °F 40.7 °F 44.6 °F 93% 29.90 in 10.0 mi East 12.7 mph - N/A   Overcast
10:16 PM 46.4 °F 39.8 °F 42.8 °F 87% 29.89 in 10.0 mi East 16.1 mph 20.7 mph N/A   Overcast
10:36 PM 46.4 °F 40.1 °F 42.8 °F 87% 29.90 in 10.0 mi East 15.0 mph 18.4 mph N/A   Overcast
10:56 PM 46.4 °F 40.7 °F 42.8 °F 87% 29.90 in 10.0 mi East 12.7 mph - N/A   Mostly Cloudy
11:16 PM 46.4 °F 40.4 °F 44.6 °F 93% 29.89 in 10.0 mi East 13.8 mph - N/A   Overcast
11:36 PM 46.4 °F 40.1 °F 42.8 °F 87% 29.89 in 10.0 mi East 15.0 mph - N/A   Overcast
11:56 PM 46.4 °F 40.7 °F 42.8 °F 87% 29.90 in 10.0 mi East 12.7 mph 18.4 mph N/A   Overcast